FHM714 FALE-FACT

Flight info

Callsign FHM714
Flight time 1h 52m
Altitude 36000
Route TUBIN1B TUBIN UZ3 ESRUK UQ51 GETEN GETEN1B
Aircraft A320/M-SDFGIJ1RWY/LB1

Departure

Time 2026-05-07 09:17
Airport King Shaka International Airport (FALE)

Arrival

Time 2026-05-07 11:10
Airport Cape Town International Airport (FACT)
Time Latitude Longitude Altitude Speed Heading
2026-05-07 09:00 -29.62025 31.10517 296 ft 0 kts 307°
2026-05-07 09:05 -29.62031 31.10527 301 ft 4 kts 313°
2026-05-07 09:05 -29.62052 31.10545 299 ft 4 kts 341°
2026-05-07 09:05 -29.62078 31.10550 299 ft 4 kts
2026-05-07 09:05 -29.62103 31.10542 300 ft 4 kts 30°
2026-05-07 09:06 -29.62113 31.10535 300 ft 0 kts 38°
2026-05-07 09:08 -29.62110 31.10537 296 ft 2 kts 38°
2026-05-07 09:08 -29.62089 31.10556 298 ft 4 kts 37°
2026-05-07 09:08 -29.62073 31.10570 296 ft 4 kts 37°
2026-05-07 09:09 -29.62028 31.10608 298 ft 9 kts 37°
2026-05-07 09:09 -29.61985 31.10649 300 ft 7 kts 50°
2026-05-07 09:09 -29.61992 31.10704 299 ft 9 kts 132°
2026-05-07 09:09 -29.62028 31.10751 297 ft 7 kts 129°
2026-05-07 09:10 -29.62055 31.10791 296 ft 6 kts 126°
2026-05-07 09:10 -29.62090 31.10849 296 ft 10 kts 118°
2026-05-07 09:10 -29.62068 31.10908 296 ft 10 kts 40°
2026-05-07 09:10 -29.61974 31.10989 296 ft 21 kts 37°
2026-05-07 09:11 -29.61854 31.11095 298 ft 22 kts 37°
2026-05-07 09:11 -29.61728 31.11204 297 ft 23 kts 37°
2026-05-07 09:11 -29.61597 31.11318 297 ft 24 kts 37°
2026-05-07 09:11 -29.61466 31.11428 300 ft 23 kts 36°
2026-05-07 09:12 -29.61340 31.11541 301 ft 23 kts 38°
2026-05-07 09:12 -29.61217 31.11650 303 ft 23 kts 38°
2026-05-07 09:12 -29.61089 31.11761 303 ft 23 kts 37°
2026-05-07 09:12 -29.60958 31.11875 301 ft 25 kts 37°
2026-05-07 09:13 -29.60820 31.11997 304 ft 25 kts 38°
2026-05-07 09:13 -29.60682 31.12119 302 ft 25 kts 36°
2026-05-07 09:13 -29.60553 31.12227 307 ft 21 kts 37°
2026-05-07 09:13 -29.60436 31.12329 310 ft 21 kts 37°
2026-05-07 09:14 -29.60319 31.12431 310 ft 21 kts 37°
2026-05-07 09:14 -29.60201 31.12534 311 ft 22 kts 37°
2026-05-07 09:14 -29.60073 31.12645 311 ft 23 kts 38°
2026-05-07 09:14 -29.59940 31.12762 306 ft 25 kts 36°
2026-05-07 09:15 -29.59835 31.12853 308 ft 14 kts 37°
2026-05-07 09:15 -29.59775 31.12910 308 ft 9 kts 53°
2026-05-07 09:15 -29.59785 31.12967 310 ft 7 kts 124°
2026-05-07 09:15 -29.59813 31.13013 306 ft 8 kts 124°
2026-05-07 09:16 -29.59848 31.13067 304 ft 7 kts 136°
2026-05-07 09:16 -29.59886 31.13051 307 ft 9 kts 219°
2026-05-07 09:16 -29.60044 31.12914 302 ft 61 kts 217°
2026-05-07 09:16 -29.60557 31.12465 303 ft 122 kts 217°
2026-05-07 09:17 -29.61368 31.11765 306 ft 168 kts 216°
2026-05-07 09:17 -29.62332 31.10950 772 ft 172 kts 217°
2026-05-07 09:17 -29.63303 31.10128 1384 ft 174 kts 218°
2026-05-07 09:17 -29.64268 31.09287 1938 ft 175 kts 219°
2026-05-07 09:18 -29.65274 31.08390 2227 ft 193 kts 221°
2026-05-07 09:18 -29.66229 31.07262 2557 ft 208 kts 238°
2026-05-07 09:18 -29.67021 31.05764 2867 ft 231 kts 243°
2026-05-07 09:18 -29.67832 31.04062 3220 ft 253 kts 244°
2026-05-07 09:19 -29.68683 31.02214 3784 ft 267 kts 244°
2026-05-07 09:19 -29.69583 31.00324 4601 ft 271 kts 243°
2026-05-07 09:19 -29.70505 30.98421 5443 ft 272 kts 243°
2026-05-07 09:19 -29.71427 30.96525 6327 ft 271 kts 243°
2026-05-07 09:20 -29.72347 30.94632 7212 ft 270 kts 242°
2026-05-07 09:20 -29.73255 30.92758 8096 ft 268 kts 243°
2026-05-07 09:20 -29.74136 30.90875 8982 ft 267 kts 243°
2026-05-07 09:20 -29.74996 30.88988 9876 ft 266 kts 243°
2026-05-07 09:21 -29.75858 30.87073 10240 ft 283 kts 244°
2026-05-07 09:21 -29.76799 30.84975 10400 ft 305 kts 243°
2026-05-07 09:21 -29.77792 30.82772 10855 ft 315 kts 244°
2026-05-07 09:21 -29.78811 30.80518 11456 ft 320 kts 244°
2026-05-07 09:22 -29.79846 30.78229 12084 ft 324 kts 244°
2026-05-07 09:22 -29.80895 30.75909 12722 ft 329 kts 244°
2026-05-07 09:22 -29.81958 30.73555 13367 ft 333 kts 244°
2026-05-07 09:22 -29.83035 30.71171 13997 ft 336 kts 245°
2026-05-07 09:23 -29.84115 30.68778 14596 ft 338 kts 245°
2026-05-07 09:23 -29.85203 30.66361 15160 ft 341 kts 245°
2026-05-07 09:23 -29.86298 30.63926 15743 ft 344 kts 246°
2026-05-07 09:23 -29.87404 30.61471 16316 ft 347 kts 246°
2026-05-07 09:24 -29.88516 30.58995 16906 ft 349 kts 246°
2026-05-07 09:24 -29.89620 30.56533 17465 ft 352 kts 246°
2026-05-07 09:24 -29.90748 30.54016 18025 ft 355 kts 247°
2026-05-07 09:24 -29.91886 30.51478 18504 ft 358 kts 247°
2026-05-07 09:25 -29.93034 30.48924 19019 ft 360 kts 247°
2026-05-07 09:25 -29.94191 30.46352 19482 ft 363 kts 247°
2026-05-07 09:25 -29.95356 30.43757 19963 ft 366 kts 247°
2026-05-07 09:25 -29.96533 30.41136 20442 ft 368 kts 247°
2026-05-07 09:26 -29.97711 30.38507 20943 ft 371 kts 247°
2026-05-07 09:26 -29.98903 30.35851 21432 ft 373 kts 247°
2026-05-07 09:26 -30.00104 30.33179 21898 ft 377 kts 247°
2026-05-07 09:26 -30.01317 30.30477 22333 ft 380 kts 247°
2026-05-07 09:27 -30.02532 30.27758 22825 ft 383 kts 248°
2026-05-07 09:27 -30.03735 30.25052 23278 ft 385 kts 248°
2026-05-07 09:27 -30.06199 30.19503 23994 ft 390 kts 248°
2026-05-07 09:28 -30.07440 30.16709 24354 ft 392 kts 248°
2026-05-07 09:28 -30.08692 30.13899 24724 ft 393 kts 248°
2026-05-07 09:28 -30.09948 30.11084 25085 ft 395 kts 248°
2026-05-07 09:28 -30.11208 30.08256 25428 ft 397 kts 248°
2026-05-07 09:29 -30.12471 30.05417 25783 ft 398 kts 248°
2026-05-07 09:29 -30.13735 30.02567 26128 ft 399 kts 248°
2026-05-07 09:29 -30.15003 29.99704 26437 ft 401 kts 248°
2026-05-07 09:29 -30.16277 29.96826 26767 ft 403 kts 248°
2026-05-07 09:30 -30.17539 29.93974 27095 ft 405 kts 248°
2026-05-07 09:30 -30.18822 29.91071 27408 ft 406 kts 248°
2026-05-07 09:30 -30.20111 29.88156 27717 ft 408 kts 248°
2026-05-07 09:30 -30.21408 29.85223 28027 ft 410 kts 248°
2026-05-07 09:31 -30.22706 29.82283 28334 ft 411 kts 248°
2026-05-07 09:31 -30.24008 29.79328 28615 ft 413 kts 247°
2026-05-07 09:31 -30.25315 29.76358 28888 ft 415 kts 247°
2026-05-07 09:31 -30.26630 29.73369 29150 ft 417 kts 247°
2026-05-07 09:32 -30.27946 29.70375 29419 ft 418 kts 247°
2026-05-07 09:32 -30.28817 29.68389 29584 ft 419 kts 247°
2026-05-07 09:32 -30.30142 29.65375 29826 ft 421 kts 247°
2026-05-07 09:32 -30.31472 29.62350 30029 ft 422 kts 247°
2026-05-07 09:33 -30.32804 29.59315 30254 ft 423 kts 248°
2026-05-07 09:33 -30.34135 29.56276 30500 ft 423 kts 248°
2026-05-07 09:33 -30.35462 29.53244 30767 ft 422 kts 248°
2026-05-07 09:33 -30.36788 29.50208 30961 ft 423 kts 248°
2026-05-07 09:34 -30.38117 29.47163 31208 ft 424 kts 248°
2026-05-07 09:34 -30.39449 29.44119 31469 ft 423 kts 248°
2026-05-07 09:34 -30.40781 29.41082 31755 ft 422 kts 248°
2026-05-07 09:34 -30.42105 29.38058 32053 ft 421 kts 248°
2026-05-07 09:35 -30.43428 29.35028 32361 ft 420 kts 248°
2026-05-07 09:35 -30.44740 29.32019 32654 ft 419 kts 248°
2026-05-07 09:35 -30.46052 29.29004 32955 ft 417 kts 248°
2026-05-07 09:35 -30.47357 29.26005 33206 ft 416 kts 248°
2026-05-07 09:36 -30.48658 29.23011 33495 ft 415 kts 248°
2026-05-07 09:36 -30.49954 29.20021 33744 ft 415 kts 248°
2026-05-07 09:36 -30.51250 29.17035 33990 ft 414 kts 248°
2026-05-07 09:36 -30.52545 29.14054 34202 ft 414 kts 248°
2026-05-07 09:37 -30.53837 29.11075 34415 ft 413 kts 249°
2026-05-07 09:37 -30.55125 29.08098 34621 ft 413 kts 249°
2026-05-07 09:37 -30.56410 29.05122 34811 ft 412 kts 249°
2026-05-07 09:37 -30.57690 29.02148 34974 ft 412 kts 249°
2026-05-07 09:38 -30.58950 28.99215 35154 ft 411 kts 249°
2026-05-07 09:38 -30.60228 28.96245 35321 ft 411 kts 249°
2026-05-07 09:38 -30.61523 28.93241 35509 ft 410 kts 249°
2026-05-07 09:38 -30.62800 28.90280 35672 ft 410 kts 249°
2026-05-07 09:39 -30.64059 28.87361 35841 ft 410 kts 249°
2026-05-07 09:39 -30.66606 28.81455 35895 ft 408 kts 249°
2026-05-07 09:40 -30.69138 28.75561 35903 ft 407 kts 249°
2026-05-07 09:40 -30.71658 28.69659 35890 ft 407 kts 249°
2026-05-07 09:41 -30.74175 28.63761 35907 ft 407 kts 249°
2026-05-07 09:41 -30.76686 28.57878 35893 ft 405 kts 250°
2026-05-07 09:42 -30.79031 28.51917 35919 ft 405 kts 251°
2026-05-07 09:42 -30.81299 28.45929 35923 ft 404 kts 251°
2026-05-07 09:43 -30.83579 28.39947 35933 ft 404 kts 251°
2026-05-07 09:43 -30.85878 28.34009 35903 ft 405 kts 250°
2026-05-07 09:44 -30.88201 28.28018 35912 ft 408 kts 250°
2026-05-07 09:44 -30.90533 28.21977 35914 ft 410 kts 250°
2026-05-07 09:45 -30.92865 28.15914 35942 ft 410 kts 250°
2026-05-07 09:45 -30.95193 28.09825 35951 ft 411 kts 250°
2026-05-07 09:46 -30.97515 28.03739 35986 ft 411 kts 249°
2026-05-07 09:46 -30.99840 27.97644 35974 ft 411 kts 249°
2026-05-07 09:47 -31.02162 27.91559 35975 ft 411 kts 249°
2026-05-07 09:47 -31.04492 27.85481 35976 ft 410 kts 249°
2026-05-07 09:48 -31.06810 27.79404 35985 ft 410 kts 249°
2026-05-07 09:48 -31.09120 27.73325 35985 ft 410 kts 249°
2026-05-07 09:49 -31.11426 27.67281 35992 ft 410 kts 249°
2026-05-07 09:49 -31.13741 27.61203 35992 ft 410 kts 250°
2026-05-07 09:50 -31.16043 27.55116 36003 ft 410 kts 249°
2026-05-07 09:50 -31.18349 27.49029 36002 ft 410 kts 250°
2026-05-07 09:51 -31.20649 27.42937 36007 ft 410 kts 249°
2026-05-07 09:51 -31.22950 27.36837 35993 ft 410 kts 249°
2026-05-07 09:52 -31.25246 27.30731 35997 ft 410 kts 249°
2026-05-07 09:52 -31.27543 27.24625 35997 ft 410 kts 249°
2026-05-07 09:53 -31.29816 27.18552 35995 ft 410 kts 249°
2026-05-07 09:53 -31.32105 27.12439 36001 ft 410 kts 249°
2026-05-07 09:54 -31.34396 27.06325 36009 ft 410 kts 249°
2026-05-07 09:54 -31.36677 27.00208 36007 ft 410 kts 249°
2026-05-07 09:55 -31.38951 26.94088 36012 ft 410 kts 249°
2026-05-07 09:55 -31.41206 26.87959 36011 ft 410 kts 249°
2026-05-07 09:56 -31.43453 26.81819 36026 ft 410 kts 249°
2026-05-07 09:56 -31.45691 26.75731 36021 ft 409 kts 249°
2026-05-07 09:57 -31.47937 26.69602 36026 ft 409 kts 249°
2026-05-07 09:57 -31.50187 26.63475 36025 ft 409 kts 249°
2026-05-07 09:58 -31.52423 26.57343 36028 ft 409 kts 249°
2026-05-07 09:58 -31.54661 26.51210 36035 ft 409 kts 249°
2026-05-07 09:59 -31.56904 26.45082 36045 ft 409 kts 249°
2026-05-07 09:59 -31.59146 26.38957 36040 ft 409 kts 249°
2026-05-07 10:00 -31.61368 26.32870 36063 ft 408 kts 249°
2026-05-07 10:00 -31.63604 26.26746 36058 ft 408 kts 249°
2026-05-07 10:01 -31.65836 26.20619 36047 ft 408 kts 248°
2026-05-07 10:01 -31.68066 26.14479 36035 ft 409 kts 249°
2026-05-07 10:02 -31.70295 26.08325 36040 ft 410 kts 249°
2026-05-07 10:02 -31.72524 26.02172 36040 ft 410 kts 249°
2026-05-07 10:03 -31.74751 25.96003 36042 ft 410 kts 249°
2026-05-07 10:03 -31.76982 25.89823 36039 ft 411 kts 248°
2026-05-07 10:04 -31.79215 25.83642 36039 ft 411 kts 248°
2026-05-07 10:04 -31.81441 25.77450 36040 ft 411 kts 249°
2026-05-07 10:05 -31.83645 25.71290 36042 ft 411 kts 249°
2026-05-07 10:05 -31.85867 25.65088 36044 ft 411 kts 249°
2026-05-07 10:06 -31.88089 25.58884 36057 ft 411 kts 248°
2026-05-07 10:06 -31.90296 25.52675 36055 ft 411 kts 249°
2026-05-07 10:07 -31.92496 25.46465 36051 ft 411 kts 249°
2026-05-07 10:07 -31.94705 25.40268 36051 ft 411 kts 248°
2026-05-07 10:08 -31.96908 25.34060 36059 ft 411 kts 249°
2026-05-07 10:08 -31.99103 25.27846 36082 ft 410 kts 248°
2026-05-07 10:09 -32.01292 25.21659 36091 ft 408 kts 248°
2026-05-07 10:09 -32.03463 25.15531 36088 ft 407 kts 248°
2026-05-07 10:10 -32.05628 25.09364 36105 ft 407 kts 248°
2026-05-07 10:10 -32.07789 25.03206 36102 ft 407 kts 248°
2026-05-07 10:11 -32.09956 24.97036 36089 ft 407 kts 248°
2026-05-07 10:11 -32.12123 24.90851 36085 ft 409 kts 248°
2026-05-07 10:12 -32.14295 24.84648 36087 ft 409 kts 248°
2026-05-07 10:12 -32.16460 24.78420 36089 ft 410 kts 248°
2026-05-07 10:13 -32.18611 24.72234 36101 ft 410 kts 248°
2026-05-07 10:13 -32.20778 24.65994 36104 ft 410 kts 248°
2026-05-07 10:14 -32.22947 24.59760 36112 ft 410 kts 248°
2026-05-07 10:14 -32.25112 24.53519 36108 ft 411 kts 248°
2026-05-07 10:15 -32.27266 24.47276 36104 ft 411 kts 248°
2026-05-07 10:15 -32.29428 24.41015 36104 ft 411 kts 248°
2026-05-07 10:16 -32.31571 24.34795 36110 ft 411 kts 248°
2026-05-07 10:16 -32.33724 24.28533 36102 ft 411 kts 248°
2026-05-07 10:17 -32.35876 24.22262 36103 ft 411 kts 249°
2026-05-07 10:17 -32.38018 24.15990 36102 ft 411 kts 249°
2026-05-07 10:18 -32.40160 24.09712 36108 ft 411 kts 249°
2026-05-07 10:18 -32.42303 24.03433 36109 ft 411 kts 249°
2026-05-07 10:19 -32.44440 23.97146 36111 ft 412 kts 249°
2026-05-07 10:19 -32.46561 23.90889 36111 ft 412 kts 249°
2026-05-07 10:20 -32.48684 23.84598 36108 ft 412 kts 249°
2026-05-07 10:20 -32.50816 23.78292 36109 ft 412 kts 249°
2026-05-07 10:21 -32.52944 23.71991 36110 ft 412 kts 249°
2026-05-07 10:21 -32.55067 23.65682 36109 ft 412 kts 249°
2026-05-07 10:22 -32.57182 23.59363 36112 ft 412 kts 249°
2026-05-07 10:22 -32.59294 23.53040 36113 ft 412 kts 249°
2026-05-07 10:23 -32.61402 23.46751 36111 ft 413 kts 249°
2026-05-07 10:23 -32.63517 23.40414 36115 ft 413 kts 249°
2026-05-07 10:24 -32.65629 23.34082 36117 ft 413 kts 249°
2026-05-07 10:24 -32.67741 23.27739 36116 ft 413 kts 249°
2026-05-07 10:25 -32.69490 23.22475 36119 ft 413 kts 249°
2026-05-07 10:25 -32.71600 23.16136 36116 ft 413 kts 249°
2026-05-07 10:26 -32.73704 23.09793 36119 ft 413 kts 250°
2026-05-07 10:26 -32.75801 23.03445 36119 ft 413 kts 250°
2026-05-07 10:27 -32.77899 22.97098 36124 ft 413 kts 250°
2026-05-07 10:27 -32.79983 22.90739 36122 ft 412 kts 250°
2026-05-07 10:28 -32.82067 22.84390 36123 ft 412 kts 250°
2026-05-07 10:28 -32.84140 22.78082 36130 ft 412 kts 250°
2026-05-07 10:29 -32.86221 22.71716 36131 ft 413 kts 250°
2026-05-07 10:29 -32.88301 22.65345 36129 ft 413 kts 250°
2026-05-07 10:30 -32.91476 22.55805 36136 ft 414 kts 247°
2026-05-07 10:30 -32.93950 22.49601 36139 ft 415 kts 245°
2026-05-07 10:31 -32.96536 22.43469 36151 ft 415 kts 245°
2026-05-07 10:31 -32.99055 22.37336 36156 ft 414 kts 245°
2026-05-07 10:32 -33.01528 22.31139 36163 ft 414 kts 246°
2026-05-07 10:32 -33.03991 22.24938 36163 ft 414 kts 246°
2026-05-07 10:33 -33.06458 22.18742 36165 ft 414 kts 245°
2026-05-07 10:33 -33.08928 22.12551 36160 ft 413 kts 245°
2026-05-07 10:34 -33.11400 22.06355 36161 ft 413 kts 245°
2026-05-07 10:34 -33.13859 22.00171 36167 ft 413 kts 246°
2026-05-07 10:35 -33.16307 21.93976 36165 ft 413 kts 246°
2026-05-07 10:35 -33.18761 21.87772 36167 ft 413 kts 246°
2026-05-07 10:36 -33.21193 21.81611 36167 ft 413 kts 246°
2026-05-07 10:36 -33.23646 21.75411 36174 ft 413 kts 246°
2026-05-07 10:37 -33.26101 21.69193 36162 ft 414 kts 246°
2026-05-07 10:37 -33.28544 21.62956 36159 ft 414 kts 246°
2026-05-07 10:38 -33.30982 21.56719 36157 ft 414 kts 246°
2026-05-07 10:38 -33.33413 21.50523 36172 ft 415 kts 246°
2026-05-07 10:39 -33.35862 21.44273 36167 ft 415 kts 246°
2026-05-07 10:39 -33.38306 21.38014 36175 ft 416 kts 246°
2026-05-07 10:40 -33.40751 21.31735 36176 ft 416 kts 246°
2026-05-07 10:40 -33.43190 21.25457 36176 ft 416 kts 246°
2026-05-07 10:41 -33.45622 21.19171 36176 ft 416 kts 246°
2026-05-07 10:41 -33.48058 21.12873 36187 ft 416 kts 246°
2026-05-07 10:42 -33.50472 21.06619 36193 ft 416 kts 246°
2026-05-07 10:42 -33.52902 21.00328 36194 ft 416 kts 246°
2026-05-07 10:43 -33.55327 20.94034 36195 ft 416 kts 246°
2026-05-07 10:43 -33.57749 20.87728 36195 ft 416 kts 246°
2026-05-07 10:44 -33.59519 20.81189 35939 ft 413 kts 265°
2026-05-07 10:44 -33.59752 20.77745 35694 ft 413 kts 265°
2026-05-07 10:44 -33.59972 20.74314 35446 ft 413 kts 265°
2026-05-07 10:45 -33.60183 20.70923 35217 ft 411 kts 265°
2026-05-07 10:45 -33.60396 20.67517 34977 ft 410 kts 265°
2026-05-07 10:45 -33.60606 20.64118 34740 ft 408 kts 265°
2026-05-07 10:45 -33.60813 20.60736 34503 ft 405 kts 265°
2026-05-07 10:46 -33.61019 20.57387 34098 ft 401 kts 265°
2026-05-07 10:46 -33.61223 20.54069 33580 ft 397 kts 265°
2026-05-07 10:46 -33.61429 20.50780 33103 ft 392 kts 265°
2026-05-07 10:46 -33.61632 20.47534 32631 ft 388 kts 265°
2026-05-07 10:47 -33.61832 20.44320 32165 ft 384 kts 264°
2026-05-07 10:47 -33.62031 20.41131 31705 ft 381 kts 264°
2026-05-07 10:47 -33.62227 20.37978 31252 ft 377 kts 264°
2026-05-07 10:47 -33.62415 20.34894 30808 ft 374 kts 264°
2026-05-07 10:48 -33.62598 20.31793 30357 ft 371 kts 264°
2026-05-07 10:48 -33.62779 20.28710 29886 ft 368 kts 264°
2026-05-07 10:48 -33.62960 20.25670 29457 ft 363 kts 264°
2026-05-07 10:48 -33.63142 20.22659 29043 ft 359 kts 264°
2026-05-07 10:49 -33.63320 20.19689 28637 ft 355 kts 264°
2026-05-07 10:49 -33.63496 20.16745 28237 ft 351 kts 264°
2026-05-07 10:49 -33.63665 20.13849 27852 ft 347 kts 264°
2026-05-07 10:49 -33.63833 20.10975 27465 ft 342 kts 264°
2026-05-07 10:50 -33.63998 20.08141 27088 ft 339 kts 264°
2026-05-07 10:50 -33.64161 20.05343 26710 ft 335 kts 263°
2026-05-07 10:50 -33.64320 20.02568 26338 ft 331 kts 263°
2026-05-07 10:50 -33.64478 19.99822 25960 ft 328 kts 263°
2026-05-07 10:51 -33.64635 19.97104 25585 ft 325 kts 263°
2026-05-07 10:51 -33.64791 19.94411 25208 ft 323 kts 263°
2026-05-07 10:51 -33.64945 19.91732 24817 ft 321 kts 263°
2026-05-07 10:51 -33.65097 19.89096 24434 ft 319 kts 263°
2026-05-07 10:52 -33.65248 19.86442 24037 ft 318 kts 263°
2026-05-07 10:52 -33.65398 19.83792 23618 ft 317 kts 263°
2026-05-07 10:52 -33.65546 19.81159 23195 ft 315 kts 263°
2026-05-07 10:52 -33.65696 19.78543 22793 ft 313 kts 263°
2026-05-07 10:53 -33.65844 19.75944 22410 ft 311 kts 263°
2026-05-07 10:53 -33.65988 19.73353 22026 ft 311 kts 263°
2026-05-07 10:53 -33.66130 19.70769 21639 ft 310 kts 263°
2026-05-07 10:53 -33.66270 19.68227 21261 ft 309 kts 263°
2026-05-07 10:54 -33.66413 19.65657 20881 ft 308 kts 262°
2026-05-07 10:54 -33.66555 19.63094 20502 ft 307 kts 262°
2026-05-07 10:54 -33.66696 19.60538 20124 ft 307 kts 262°
2026-05-07 10:54 -33.66833 19.57987 19750 ft 306 kts 262°
2026-05-07 10:55 -33.66969 19.55440 19377 ft 305 kts 262°
2026-05-07 10:55 -33.67108 19.52897 19005 ft 305 kts 262°
2026-05-07 10:55 -33.67249 19.50349 18633 ft 305 kts 262°
2026-05-07 10:55 -33.67387 19.47805 18233 ft 305 kts 262°
2026-05-07 10:56 -33.67522 19.45264 17838 ft 304 kts 262°
2026-05-07 10:56 -33.67655 19.42734 17489 ft 303 kts 262°
2026-05-07 10:56 -33.67788 19.40215 17126 ft 302 kts 262°
2026-05-07 10:56 -33.67921 19.37705 16764 ft 301 kts 262°
2026-05-07 10:57 -33.68055 19.35199 16412 ft 301 kts 262°
2026-05-07 10:57 -33.68187 19.32695 16048 ft 300 kts 262°
2026-05-07 10:57 -33.68318 19.30191 15692 ft 300 kts 262°
2026-05-07 10:57 -33.68449 19.27686 15336 ft 301 kts 262°
2026-05-07 10:58 -33.68578 19.25179 14979 ft 301 kts 262°
2026-05-07 10:58 -33.68704 19.22703 14629 ft 301 kts 263°
2026-05-07 10:58 -33.68833 19.20184 14270 ft 303 kts 263°
2026-05-07 10:58 -33.68963 19.17649 13894 ft 305 kts 263°
2026-05-07 10:59 -33.69095 19.15099 13505 ft 306 kts 263°
2026-05-07 10:59 -33.69227 19.12542 13130 ft 306 kts 263°
2026-05-07 10:59 -33.69354 19.10002 12758 ft 305 kts 263°
2026-05-07 10:59 -33.69480 19.07459 12386 ft 305 kts 263°
2026-05-07 11:00 -33.69604 19.04913 11997 ft 304 kts 263°
2026-05-07 11:00 -33.69728 19.02385 11631 ft 303 kts 263°
2026-05-07 11:00 -33.69852 18.99863 11245 ft 302 kts 263°
2026-05-07 11:00 -33.69979 18.97342 10858 ft 302 kts 264°
2026-05-07 11:01 -33.70105 18.94866 10502 ft 301 kts 264°
2026-05-07 11:01 -33.70231 18.92363 10160 ft 299 kts 264°
2026-05-07 11:01 -33.70407 18.89873 9805 ft 295 kts 257°
2026-05-07 11:01 -33.70827 18.87488 9468 ft 290 kts 254°
2026-05-07 11:02 -33.71292 18.85140 9097 ft 288 kts 254°
2026-05-07 11:02 -33.71759 18.82807 8730 ft 286 kts 254°
2026-05-07 11:02 -33.72223 18.80488 8347 ft 285 kts 254°
2026-05-07 11:02 -33.72682 18.78190 7847 ft 281 kts 254°
2026-05-07 11:03 -33.73135 18.75915 7221 ft 279 kts 254°
2026-05-07 11:03 -33.73582 18.73662 6649 ft 276 kts 254°
2026-05-07 11:03 -33.74017 18.71450 6179 ft 267 kts 254°
2026-05-07 11:03 -33.74436 18.69317 5798 ft 257 kts 254°
2026-05-07 11:04 -33.74840 18.67268 5419 ft 248 kts 254°
2026-05-07 11:04 -33.75231 18.65293 5057 ft 240 kts 254°
2026-05-07 11:04 -33.75618 18.63354 4685 ft 242 kts 254°
2026-05-07 11:04 -33.76017 18.61383 4299 ft 243 kts 254°
2026-05-07 11:05 -33.76446 18.59423 4017 ft 240 kts 246°
2026-05-07 11:05 -33.77348 18.57805 3753 ft 229 kts 221°
2026-05-07 11:05 -33.78545 18.56595 3507 ft 222 kts 215°
2026-05-07 11:05 -33.79809 18.55563 3250 ft 217 kts 199°
2026-05-07 11:06 -33.81258 18.55362 3056 ft 207 kts 167°
2026-05-07 11:06 -33.82620 18.55774 2963 ft 199 kts 163°
2026-05-07 11:06 -33.83924 18.56189 2760 ft 195 kts 163°
2026-05-07 11:06 -33.85253 18.56610 2526 ft 193 kts 163°
2026-05-07 11:07 -33.86527 18.57012 2230 ft 190 kts 164°
2026-05-07 11:07 -33.87760 18.57402 1955 ft 175 kts 164°
2026-05-07 11:07 -33.88880 18.57755 1720 ft 159 kts 164°
2026-05-07 11:07 -33.89907 18.58080 1513 ft 147 kts 164°
2026-05-07 11:08 -33.90863 18.58383 1301 ft 138 kts 164°
2026-05-07 11:08 -33.91778 18.58672 1103 ft 134 kts 165°
2026-05-07 11:08 -33.92681 18.58958 926 ft 134 kts 165°
2026-05-07 11:08 -33.93583 18.59244 732 ft 133 kts 165°
2026-05-07 11:09 -33.94475 18.59529 532 ft 132 kts 165°
2026-05-07 11:09 -33.95362 18.59818 358 ft 132 kts 165°
2026-05-07 11:09 -33.96236 18.60082 165 ft 126 kts 165°
2026-05-07 11:09 -33.96924 18.60303 153 ft 68 kts 165°
2026-05-07 11:10 -33.97115 18.60358 152 ft 8 kts 195°
2026-05-07 11:10 -33.97127 18.60315 152 ft 6 kts 288°
2026-05-07 11:10 -33.97116 18.60274 152 ft 5 kts 288°
2026-05-07 11:10 -33.97106 18.60239 152 ft 4 kts 288°
2026-05-07 11:11 -33.97097 18.60205 152 ft 7 kts 288°
2026-05-07 11:11 -33.97081 18.60141 169 ft 8 kts 286°
2026-05-07 11:11 -33.97067 18.60082 151 ft 9 kts 286°
2026-05-07 11:11 -33.97049 18.60006 152 ft 9 kts 285°
2026-05-07 11:12 -33.97052 18.59938 152 ft 7 kts 255°
2026-05-07 11:12 -33.97062 18.59892 152 ft 3 kts 255°
2026-05-07 11:12 -33.97065 18.59876 152 ft 1 kts 256°
2026-05-07 11:12 -33.97067 18.59868 152 ft 1 kts 255°
2026-05-07 11:13 -33.97068 18.59864 152 ft 2 kts 255°
2026-05-07 11:13 -33.97070 18.59855 152 ft 1 kts 255°
2026-05-07 11:13 -33.97071 18.59853 152 ft 0 kts 255°